Regional Weather Roundup
Issued by NWS State College, PA

Home | Current Version | Previous Version | Text Only | Print | Product List | Glossary On
Versions: 1 2 3 4 5 6 7 8 9 10 11 12 13 14 15 16 17 18 19 20 21 22 23 24 25 26 27 28 29 30 31 32 33 34 35 36 37 38 39 40 41 42 43 44 45 46 47 48 49 50
000
ASUS41 KCTP 301903
RWRCTP

REGIONAL WEATHER ROUNDUP
NATIONAL WEATHER SERVICE STATE COLLEGE PA
300 PM EDT TUE JUN 30 2015

Note: "fair" indicates few or no clouds below 12,000 feet with no
significant weather and/or obstructions to visibility.

* = STATION THAT DOES NOT REPORT PRECIPITATION /E.G. RAIN...SNOW...ETC/
    THUNDER OR FOG.

PAZ002>004-007>009-013>016-020>023-029>032-302000-
WESTERN PENNSYLVANIA

CITY           SKY/WX    TMP DP  RH WIND       PRES   REMARKS
ERIE           CLOUDY    69  61  75 VRB7      29.80F
MEADVILLE      CLOUDY    72  60  66 W8        29.81F
FRANKLIN*      CLOUDY    70  59  68 S14       29.84F
NEW CASTLE     MOCLDY    78  66  66 VRB5      29.81F
BEAVER COUNTY  TSTM      70  66  88 SW9G20    29.83F
BUTLER*        PTSUNNY   68  64  88 W9        29.85F
PITTSBURGH INT PTSUNNY   74  63  68 SW12      29.82F
PITTSBURGH     MOSUNNY   77  59  53 SW16      29.82F
INDIANA*       MOSUNNY   75  66  73 W10       29.88F
LATROBE        NOT AVBL
WASHINGTON CO* NOT AVBL
$$

PAZ004>006-010>012-017>019-024>028-033>037-041-042-045-046-049>053-302000-
CENTRAL PENNSYLVANIA

CITY           SKY/WX    TMP DP  RH WIND       PRES   REMARKS
BRADFORD       PTSUNNY   70  62  76 VRB5      29.84F
DUBOIS         CLOUDY    70  64  81 SW6       29.84F
CLEARFIELD     PTSUNNY   73  64  73 SW8       29.85F
JOHNSTOWN      CLOUDY    73  60  63 SW9       29.88F
ALTOONA        PTSUNNY   78  65  63 S12       29.86F
STATE COLLEGE  MOSUNNY   73  66  78 S9        29.86F
WILLIAMSPORT   PTSUNNY   78  65  63 VRB3      29.81F
SELINSGROVE    MOSUNNY   80  67  64 VRB3      29.83F
FT INDIANTOWN  PTSUNNY   80  69  67 W6        29.83F
CAPITAL CITY   PTSUNNY   80  65  59 NW8       29.83S
HARRISBURG     PTSUNNY   83  66  56 SW13      29.81F
YORK           MOSUNNY   84  68  58 SW12      29.83F
$$

PAZ038>040-043-044-047-048-054-055-060>062-067>071-302000-
EASTERN PENNSYLVANIA

CITY           SKY/WX    TMP DP  RH WIND       PRES   REMARKS
SCRANTON       RAIN      72  66  81 N8        29.88F
MOUNT POCONO   LGT RAIN  65  62  90 E6        29.93S FOG
ALLENTOWN      TSTM      70  63  78 N13G47    29.90R VSB 1/2
QUAKERTOWN*    MOCLDY    79  68  69 S8        29.88R
READING        CLOUDY    80  65  59 S14G22    29.84R
LANCASTER      PTSUNNY   77  66  68 S16       29.85S
COATESVILLE    HVY RAIN  66  64  94 E24G37    29.87F
POTTSTOWN      CLOUDY    78  67  68 VRB3      29.86F
BLUE BELL      MOSUNNY   84  68  58 S12G21    29.85F
DOYLESTOWN     MOSUNNY   78  61  55 S8G21     29.86F
WILLOW GROVE   NOT AVBL
NORTH PHILA    MOSUNNY   86  58  38 S12G20    29.88F
PHILADELPHIA   PTSUNNY   85  65  51 S17G25    29.86F
$$



USA.gov is the U.S. government's official web portal to all federal, state and local government web resources and services.